Location: Nairn
(57.5833°N, 3.8667°W)
Time: 17:16:55
(UTC+00:00)

A-11 Canister half - Visible Passes

Search period start: 04 December 2020 00:00
Search period end: 14 December 2020 00:00
Orbit: 1525 x 1684 km, 47.3° (Epoch: 03 December)

Date Brightness Start Highest point End Pass type
(mag) Time Alt. Az. Time Alt. Az. Time Alt. Az.
04 Dec 11.0 03:07:13 11° SSE 03:11:33 15° SE 03:16:32 10° E visible
04 Dec 10.3 05:05:34 10° SSW 05:14:11 34° SSE 05:22:46 10° E visible
04 Dec 10.0 07:08:19 10° WSW 07:17:46 47° S 07:27:01 10° ESE visible
05 Dec 11.0 02:47:24 13° SE 02:50:01 14° SE 02:54:38 10° E visible
05 Dec 10.3 04:45:44 16° SSW 04:52:34 33° SSE 05:01:06 10° E visible
05 Dec 9.9 06:46:41 10° WSW 06:56:08 47° S 07:05:25 10° ESE visible
06 Dec 11.0 02:27:27 13° SE 02:28:29 13° SE 02:32:41 10° ESE visible
06 Dec 10.3 04:25:47 21° SSW 04:30:58 33° SSE 04:39:27 10° E visible
06 Dec 9.9 06:25:03 10° WSW 06:34:31 47° S 06:43:48 10° ESE visible
07 Dec 11.0 02:07:24 13° ESE 02:07:24 13° ESE 02:10:40 10° ESE visible
07 Dec 10.2 04:05:43 25° S 04:09:23 32° SSE 04:17:47 10° E visible
07 Dec 9.9 06:04:03 12° WSW 06:12:53 46° S 06:22:11 10° ESE visible
08 Dec 11.1 01:47:15 11° ESE 01:47:15 11° ESE 01:48:33 10° ESE visible
08 Dec 10.2 03:45:35 28° SSE 03:47:47 31° SSE 03:56:07 10° E visible
08 Dec 9.8 05:43:54 18° SW 05:51:15 46° S 06:00:34 10° ESE visible
08 Dec 10.0 07:45:46 10° W 07:55:03 43° SSW 08:04:07 10° SE visible
09 Dec 10.2 03:25:22 30° SSE 03:26:11 30° SE 03:34:26 10° E visible
09 Dec 9.8 05:23:41 23° SW 05:29:38 46° S 05:38:56 10° ESE visible
09 Dec 10.0 07:24:07 10° W 07:33:26 44° SSW 07:42:34 10° SE visible
10 Dec 10.2 03:05:05 29° SE 03:05:05 29° SE 03:12:45 10° E visible
10 Dec 9.7 05:03:24 30° SW 05:08:00 45° S 05:17:19 10° E visible
10 Dec 9.9 07:02:27 10° W 07:11:49 44° SSW 07:20:59 10° SE visible
11 Dec 10.4 02:44:47 27° SE 02:44:47 27° SE 02:51:04 10° E visible
11 Dec 9.7 04:43:05 35° SSW 04:46:22 45° SSE 04:55:41 10° E visible
11 Dec 9.8 06:41:23 12° WSW 06:50:11 45° SSW 06:59:24 10° SE visible
12 Dec 10.5 02:24:25 24° ESE 02:24:25 24° ESE 02:29:23 10° E visible
12 Dec 9.6 04:22:43 40° SSW 04:24:45 44° SSE 04:34:03 10° E visible
12 Dec 9.8 06:21:02 17° WSW 06:28:34 45° S 06:37:50 10° ESE visible
13 Dec 10.7 02:04:02 20° ESE 02:04:02 20° ESE 02:07:40 10° E visible
13 Dec 9.6 04:02:20 43° S 04:03:07 44° SSE 04:12:25 10° E visible
13 Dec 9.7 06:00:38 22° WSW 06:06:56 46° S 06:16:14 10° ESE visible
